PBO Station Position Time Series. Reference Frame : NAM14
Format Version,1.1.0
4-character ID,SAOB
Station name,San_Andreas_Geop
Begin Date, 1997-08-21
End Date, 2019-10-07
Release Date, 2019-10-08
Reference position, 36.7653038474 North Latitude, -121.4471858386 East Longitude, 359.82568 meters elevation,
Date, North (mm), East (mm), Vertical (mm), North Std. Deviation (mm), East Std. Deviation (mm),              Vertical Std. Deviation (mm), Quality,
1997-08-21,0.00, 0.00, 0.00, 2.37, 2.47, 8.95, repro,
1997-08-22,0.83, 2.52, 3.02, 2.47, 2.77, 9.32, repro,
1997-08-23,1.95, 2.39, 1.09, 2.51, 3.48, 9.82, repro,
1997-08-24,3.26, 2.04, 7.07, 2.51, 2.21, 9.38, repro,
1997-08-25,0.02, -1.53, 0.17, 2.57, 2.59, 9.76, repro,
1997-08-26,1.46, 0.03, -2.66, 2.44, 2.66, 9.21, repro,
1997-08-27,0.38, -0.10, 6.81, 2.47, 2.57, 9.34, repro,
1997-08-28,0.64, -0.45, -1.24, 2.43, 2.54, 9.27, repro,
1997-08-29,-0.91, 0.36, 6.01, 2.37, 2.44, 8.71, repro,
1997-08-30,-1.24, -1.94, 5.62, 2.34, 2.43, 8.71, repro,
1997-08-31,0.76, 0.76, 11.52, 2.45, 2.53, 9.13, repro,
1997-09-01,-0.60, -0.18, 7.24, 2.37, 2.55, 8.67, repro,
1997-09-02,1.18, 0.15, -2.11, 2.35, 2.41, 8.81, repro,
1997-09-03,1.51, 1.17, -1.16, 2.49, 2.44, 9.04, repro,
1997-09-04,2.22, -0.43, 13.09, 2.54, 2.37, 9.00, repro,
1997-09-05,0.47, 0.60, -1.74, 2.34, 2.49, 8.80, repro,
1997-09-06,1.59, -2.40, -6.46, 2.34, 2.33, 8.70, repro,
1997-09-07,1.65, 1.21, 0.04, 2.38, 2.52, 8.88, repro,
1997-09-08,-1.43, 0.10, 0.49, 2.33, 2.31, 8.65, repro,
1997-09-09,-0.05, 0.70, 13.72, 2.44, 2.52, 9.28, repro,
1997-09-10,1.71, 2.95, 8.57, 2.34, 2.35, 8.76, repro,
1997-09-11,2.19, 1.47, 6.30, 2.59, 2.38, 9.86, repro,
1997-09-12,0.98, 1.16, 9.19, 2.29, 1.93, 8.78, repro,
1997-09-13,2.29, 2.40, 5.76, 2.21, 1.92, 8.39, repro,
1997-09-14,1.43, 1.34, 0.42, 2.20, 1.91, 8.23, repro,
1997-09-15,1.90, 2.32, 9.49, 2.28, 1.95, 8.43, repro,
1997-09-16,0.05, 0.05, -0.26, 2.16, 1.87, 8.10, repro,
1997-09-17,0.62, 0.44, 2.11, 2.16, 1.90, 8.22, repro,
1997-09-18,0.09, 2.37, -6.54, 2.20, 1.97, 8.42, repro,
1997-09-19,-0.55, 1.57, 5.20, 2.22, 2.15, 8.52, repro,
1997-09-20,0.45, 0.58, 0.05, 2.25, 2.04, 8.42, repro,
1997-09-21,0.92, 1.68, 1.81, 2.24, 2.00, 8.36, repro,
1997-09-22,1.64, 1.71, 3.35, 2.35, 2.29, 8.68, repro,
1997-09-23,2.09, 0.44, -0.96, 2.43, 2.55, 9.13, repro,
1997-09-24,1.65, 2.11, 2.45, 2.43, 2.51, 9.34, repro,
1997-09-25,-1.57, 3.28, 9.87, 2.55, 2.66, 9.61, repro,
1997-09-26,1.67, 3.00, -0.22, 4.28, 4.05, 16.06, repro,
1997-10-03,1.04, 3.29, 5.19, 4.57, 3.68, 16.90, repro,
1997-10-04,1.42, 2.34, 7.87, 2.38, 1.98, 8.81, repro,
1997-10-05,1.50, 2.29, 11.18, 2.35, 2.30, 8.98, repro,
1997-10-06,0.22, -0.53, 9.63, 2.28, 2.21, 8.70, repro,
1997-10-07,2.29, -2.29, 2.68, 2.39, 2.21, 9.07, repro,
1997-10-08,1.50, 0.43, 0.70, 2.40, 2.31, 8.95, repro,
1997-10-09,0.43, -1.02, -8.50, 2.51, 2.14, 9.39, repro,
1997-10-10,0.85, -2.90, -3.95, 2.43, 2.23, 9.12, repro,
1997-10-11,0.05, -0.41, -6.55, 2.42, 2.25, 8.84, repro,
1997-10-12,0.94, 1.37, 0.46, 2.43, 2.33, 9.06, repro,
1997-10-13,2.21, 2.24, -7.39, 2.40, 2.27, 8.79, repro,
1997-10-14,1.37, 3.42, 6.32, 2.84, 2.43, 10.26, repro,
1997-10-15,2.64, 0.13, -2.56, 2.68, 2.36, 10.26, repro,
1997-10-16,1.83, 1.77, 1.27, 2.38, 2.09, 8.96, repro,
1997-10-17,2.19, 3.59, 8.02, 2.73, 2.30, 10.25, repro,
1997-10-18,0.80, 1.93, -6.02, 2.40, 1.97, 8.75, repro,
1997-10-19,2.76, 0.97, 1.45, 2.47, 2.13, 9.02, repro,
1997-10-20,-0.06, -0.25, 1.13, 2.72, 2.41, 9.66, repro,
1997-10-21,0.43, 1.12, -1.09, 2.48, 2.27, 9.28, repro,
1997-10-22,0.96, 1.56, 2.65, 2.52, 2.22, 9.43, repro,
1997-10-23,-1.06, 1.01, 5.76, 2.54, 2.13, 9.16, repro,
1997-10-24,1.92, 1.56, 5.47, 2.52, 2.31, 9.18, repro,
1997-10-25,0.69, 2.59, -0.81, 2.77, 2.44, 10.23, repro,
1997-10-26,1.15, 1.36, 1.23, 2.48, 2.41, 9.41, repro,
1997-10-27,-0.12, 2.38, -3.25, 2.66, 2.48, 10.15, repro,
1997-10-28,0.23, 2.33, -4.56, 2.75, 2.40, 10.10, repro,
1997-10-29,-0.50, 1.89, 2.07, 2.67, 2.48, 9.83, repro,
1997-10-30,0.51, 2.82, -3.05, 2.47, 2.21, 9.36, repro,
1997-10-31,1.47, 2.31, 2.14, 2.41, 2.07, 9.04, repro,
1997-11-01,0.11, 1.76, -0.03, 2.34, 1.98, 8.88, repro,
1997-11-02,0.49, 2.87, 7.28, 2.57, 2.16, 9.53, repro,
1997-11-03,1.78, 2.80, 11.49, 2.55, 2.11, 9.62, repro,
1997-11-04,1.61, 3.50, -3.07, 2.59, 2.15, 9.50, repro,
1997-11-05,1.79, 2.96, 6.86, 2.54, 2.17, 9.38, repro,
1997-11-06,0.84, 2.07, -8.01, 2.76, 2.24, 10.23, repro,
1997-11-07,1.46, 2.78, 1.59, 2.63, 2.20, 9.50, repro,
1997-11-08,0.46, 1.95, 5.61, 2.51, 2.39, 9.42, repro,
1997-11-09,-0.20, 2.10, 2.93, 2.48, 2.39, 9.33, repro,
1997-11-10,-2.40, 2.42, -4.67, 2.44, 2.07, 9.31, repro,
1997-11-11,2.67, 3.06, 8.68, 2.41, 2.08, 9.36, repro,
1997-11-12,-0.20, 1.41, 5.09, 2.40, 2.00, 8.96, repro,
1997-11-13,0.85, 3.17, 26.07, 2.34, 2.03, 9.16, repro,
1997-11-14,0.45, 0.18, 12.32, 2.58, 2.25, 9.63, repro,
1997-11-15,-2.28, 0.78, -4.51, 2.41, 2.09, 9.18, repro,
1997-11-16,4.38, 1.69, -2.36, 2.55, 2.31, 9.38, repro,
1997-11-17,4.42, 3.85, 4.10, 2.66, 2.34, 10.01, repro,
1997-11-18,5.91, 2.60, 18.79, 2.62, 2.38, 10.04, repro,
1997-11-19,-1.11, 2.95, 8.76, 2.79, 2.33, 10.90, repro,
1997-11-20,2.24, 2.70, 3.20, 2.75, 2.36, 10.25, repro,
1997-11-21,2.08, -0.39, 7.82, 3.20, 2.54, 12.39, repro,
1997-11-22,-0.49, 2.01, 22.78, 2.75, 2.53, 10.55, repro,
1997-11-23,-0.24, 0.91, 1.09, 2.51, 2.06, 9.16, repro,
1997-11-24,0.43, 2.46, 14.50, 2.72, 2.21, 10.00, repro,
1997-11-25,1.78, 2.89, 8.86, 2.52, 2.12, 9.69, repro,
1997-11-26,0.79, 1.76, 0.01, 2.84, 2.46, 10.31, repro,
1997-11-27,1.11, -0.26, 10.07, 2.54, 2.27, 9.50, repro,
1997-11-28,2.08, 1.77, 10.69, 2.52, 2.25, 9.70, repro,
1997-11-29,3.04, 2.04, 4.13, 2.59, 2.29, 9.68, repro,
1997-11-30,-1.08, 0.24, 2.47, 2.32, 1.95, 8.69, repro,
1997-12-01,1.34, 2.80, 9.26, 2.60, 2.20, 9.52, repro,
1997-12-02,1.49, 1.24, 11.57, 2.53, 2.26, 9.43, repro,
1997-12-03,2.17, 2.62, 3.37, 2.50, 2.31, 9.85, repro,
1997-12-04,-1.12, 1.33, 14.43, 2.33, 1.97, 8.96, repro,
1997-12-05,-0.34, 2.99, -2.70, 2.44, 1.99, 9.25, repro,
1997-12-06,0.28, 4.77, 5.66, 2.53, 2.10, 9.58, repro,
1997-12-07,1.17, -0.86, -2.31, 2.23, 1.92, 8.47, repro,
1997-12-08,0.84, 1.31, 9.13, 2.49, 2.07, 9.20, repro,
1997-12-09,2.71, 0.95, -3.85, 2.32, 2.07, 8.59, repro,
1997-12-10,3.06, 2.30, -6.03, 2.61, 2.35, 9.87, repro,
1997-12-11,2.94, 2.06, -5.05, 2.44, 2.24, 9.27, repro,
1997-12-12,1.57, 2.50, -2.05, 2.49, 2.17, 9.30, repro,
1997-12-13,2.61, 2.06, -0.33, 2.42, 2.18, 9.15, repro,
1997-12-14,0.89, -0.05, 11.52, 2.36, 2.04, 9.17, repro,
1997-12-15,1.73, 1.88, 5.38, 2.58, 2.39, 9.99, repro,
1997-12-16,2.21, 1.23, 4.19, 2.56, 2.17, 9.36, repro,
1997-12-17,3.17, 2.95, 14.15, 2.53, 2.14, 9.48, repro,
1997-12-18,2.43, 3.26, 6.84, 2.35, 2.02, 8.64, repro,
1997-12-19,3.71, 2.04, -2.54, 2.39, 2.14, 8.83, repro,
1997-12-21,3.60, 0.21, -2.41, 2.37, 2.20, 8.79, repro,
1997-12-22,0.96, -1.11, -4.37, 2.31, 2.02, 8.66, repro,
1997-12-23,0.74, 2.05, -2.77, 2.45, 2.18, 9.15, repro,
1997-12-24,0.61, 2.06, -5.07, 2.45, 2.28, 9.33, repro,
1997-12-25,0.31, 1.78, -3.82, 2.55, 2.39, 9.19, repro,
1997-12-26,4.51, 2.90, -7.84, 2.44, 2.13, 8.78, repro,
1997-12-27,2.62, 3.81, -10.93, 2.38, 2.22, 9.00, repro,
1997-12-28,2.55, 4.08, -10.48, 2.42, 2.25, 8.91, repro,
1997-12-29,2.53, 3.14, -4.60, 2.40, 2.23, 9.03, repro,
1997-12-30,1.48, 3.00, -7.50, 2.57, 2.40, 9.93, repro,
1997-12-31,0.38, 2.02, -8.25, 2.34, 2.11, 8.91, repro,
1998-01-01,-0.46, 2.89, -3.58, 2.47, 2.35, 9.29, repro,
1998-01-02,0.95, 2.89, -9.66, 2.39, 2.20, 9.56, repro,
1998-01-03,2.59, 0.68, -6.67, 2.33, 2.07, 8.86, repro,
1998-01-04,-0.24, 0.95, -8.37, 2.27, 1.96, 8.58, repro,
1998-01-05,1.64, 1.68, -8.85, 2.38, 2.21, 8.85, repro,
1998-01-06,2.65, 1.80, -11.72, 2.40, 2.25, 8.88, repro,
1998-01-07,3.89, 4.67, -16.50, 2.40, 2.24, 9.02, repro,
1998-01-08,1.26, 1.62, -10.58, 2.48, 2.34, 9.44, repro,
1998-01-09,1.37, 4.68, -12.15, 2.28, 2.04, 8.48, repro,
1998-01-10,-0.51, 1.43, -6.44, 2.35, 2.05, 8.95, repro,
1998-01-11,0.78, 3.61, -12.44, 2.36, 2.14, 9.05, repro,
1998-01-12,1.04, 1.40, -11.00, 2.39, 2.06, 9.23, repro,
1998-01-13,3.65, 0.89, -12.57, 2.47, 2.54, 9.33, repro,
1998-01-14,2.24, 1.10, -9.43, 2.24, 1.99, 8.55, repro,
1998-01-15,0.17, 3.54, -6.10, 2.26, 1.98, 8.60, repro,
1998-01-16,2.10, 1.80, -6.19, 2.51, 2.28, 9.62, repro,
1998-01-17,2.88, 0.83, -4.91, 2.36, 2.25, 8.94, repro,
1998-01-18,0.95, 3.18, -8.94, 2.37, 2.05, 9.08, repro,
1998-01-19,3.07, 0.42, -16.34, 2.29, 2.17, 8.37, repro,
1998-01-20,1.38, 0.58, -14.28, 2.27, 2.18, 8.63, repro,
1998-01-21,2.04, 3.33, -8.11, 2.57, 2.49, 9.69, repro,
1998-01-22,2.71, 2.98, -9.97, 2.34, 2.29, 9.05, repro,
1998-01-23,2.69, 2.79, -12.37, 2.50, 2.40, 9.89, repro,
1998-01-24,1.53, 3.14, -10.24, 2.39, 2.23, 9.07, repro,
1998-01-25,3.30, 4.20, 0.03, 2.30, 2.23, 8.44, repro,
1998-01-26,2.75, 3.17, -16.53, 2.30, 1.98, 8.73, repro,
1998-01-27,1.97, 2.62, -11.06, 2.22, 1.90, 8.19, repro,
1998-01-28,1.70, 4.04, -13.30, 2.33, 1.95, 8.66, repro,
1998-01-29,1.65, 2.86, -8.93, 2.54, 2.20, 9.58, repro,
1998-01-30,1.58, 3.48, -10.32, 2.46, 2.42, 9.32, repro,
1998-01-31,0.08, 3.20, -7.44, 2.36, 2.10, 8.86, repro,
1998-02-01,0.22, 2.10, -10.54, 2.34, 1.96, 8.61, repro,
1998-02-02,0.92, 3.84, -3.99, 2.19, 1.85, 8.05, repro,
1998-02-03,2.77, 1.48, -11.20, 2.17, 1.84, 8.00, repro,
1998-02-04,-0.76, 1.05, -14.57, 2.30, 2.00, 8.39, repro,
1998-02-05,0.63, 3.02, -13.16, 2.38, 2.13, 8.80, repro,
1998-02-06,0.07, 4.73, -4.54, 2.36, 2.11, 9.14, repro,
1998-02-07,-1.31, 3.33, -23.64, 2.32, 2.00, 8.58, repro,
1998-02-08,2.96, 1.94, -15.69, 2.34, 1.95, 8.93, repro,
1998-02-09,3.19, 1.99, -10.38, 2.36, 2.04, 8.89, repro,
1998-02-10,1.07, 3.73, -10.50, 2.33, 2.22, 8.90, repro,
1998-02-11,-2.18, 2.07, -17.63, 2.57, 2.13, 9.61, repro,
1998-02-12,1.67, 4.10, -4.66, 2.35, 2.04, 8.74, repro,
1998-02-13,0.13, 4.49, -17.09, 2.23, 1.90, 8.29, repro,
1998-02-14,3.00, 5.79, -9.50, 2.35, 1.98, 8.83, repro,
1998-02-15,2.00, 3.06, -11.07, 2.36, 2.05, 8.85, repro,
1998-02-16,1.52, 4.53, -8.87, 2.35, 2.24, 8.85, repro,
1998-02-17,1.55, 3.17, -7.96, 2.46, 2.14, 9.30, repro,
1998-02-18,4.03, 7.61, -11.40, 2.53, 2.67, 9.78, repro,
1998-02-19,1.95, 5.28, -12.85, 2.29, 2.02, 8.81, repro,
1998-02-20,0.80, 3.35, -11.96, 2.68, 2.46, 10.03, repro,
1998-02-21,1.66, 4.20, -15.42, 2.35, 2.11, 8.68, repro,
1998-02-22,1.34, 2.00, -16.65, 2.35, 2.02, 8.61, repro,
1998-02-23,1.94, 3.32, -15.47, 2.19, 1.97, 8.37, repro,
1998-02-24,3.03, 2.66, -6.51, 2.32, 2.10, 8.53, repro,
1998-02-25,1.93, 1.92, -10.48, 2.35, 2.15, 8.84, repro,
1998-02-26,2.79, 5.12, -1.68, 2.47, 2.40, 9.31, repro,
1998-02-27,3.29, 4.59, -6.12, 2.22, 2.05, 8.44, repro,
1998-02-28,2.89, 5.81, -11.78, 2.33, 2.12, 8.86, repro,
1998-03-01,1.17, 5.37, -12.00, 2.45, 2.23, 9.11, repro,
1998-03-02,-0.06, 5.58, -13.53, 2.35, 2.05, 8.85, repro,
1998-03-03,1.98, 5.81, -8.91, 2.29, 1.93, 8.68, repro,
1998-03-04,1.38, 3.85, -7.62, 2.31, 2.07, 8.77, repro,
1998-03-05,1.65, 3.49, -11.85, 2.24, 2.11, 8.19, repro,
1998-03-06,1.19, 3.81, -7.48, 2.22, 1.98, 8.10, repro,
1998-03-07,1.55, 4.86, -11.81, 2.30, 2.29, 8.62, repro,
1998-03-08,2.37, 5.42, -19.47, 2.32, 2.15, 8.55, repro,
1998-03-09,1.63, 5.38, -9.04, 2.32, 2.14, 8.27, repro,
1998-03-10,2.30, 5.84, -16.20, 2.35, 2.26, 8.67, repro,
1998-03-11,1.62, 5.26, -20.55, 2.32, 2.16, 8.43, repro,
1998-03-12,0.99, 5.81, -6.93, 2.30, 2.13, 8.49, repro,
1998-03-13,0.95, 4.21, -14.70, 2.24, 1.95, 8.30, repro,
1998-03-14,1.23, 5.34, -9.13, 2.28, 2.12, 8.26, repro,
1998-03-15,1.68, 6.20, -11.40, 2.27, 2.02, 8.16, repro,
1998-03-16,-0.27, 5.37, -20.76, 2.26, 2.01, 8.14, repro,
1998-03-17,2.95, 5.48, -12.15, 2.21, 2.00, 8.34, repro,
1998-03-18,1.39, 5.58, -1.95, 2.28, 2.11, 8.43, repro,
1998-03-19,2.50, 4.17, -11.65, 2.26, 2.11, 8.32, repro,
1998-03-20,0.02, 3.96, -13.78, 2.23, 1.91, 8.20, repro,
1998-03-21,0.94, 4.18, -10.89, 2.16, 1.92, 8.10, repro,
1998-03-22,1.50, 5.77, -13.06, 2.26, 2.09, 8.38, repro,
1998-03-23,1.92, 4.18, -11.33, 2.38, 2.23, 8.74, repro,
1998-03-24,3.00, 3.59, -11.39, 2.28, 1.96, 8.30, repro,
1998-03-25,1.69, 1.93, -11.57, 2.35, 2.03, 8.69, repro,
1998-04-09,-9.67, 4.24, -27.65, 41.02, 25.48, 232.81, repro,
1998-04-10,2.51, 3.54, -12.03, 2.30, 2.00, 8.62, repro,
1998-04-11,1.05, 2.93, -20.72, 2.32, 2.05, 8.64, repro,
1998-04-12,2.05, 3.57, -16.01, 2.24, 1.94, 8.30, repro,
1998-04-13,-1.02, 0.92, -22.64, 2.23, 1.89, 8.21, repro,
1998-04-14,0.70, 2.65, -24.45, 2.15, 1.85, 8.06, repro,
1998-04-15,1.14, 2.44, -24.44, 2.23, 1.89, 8.32, repro,
1998-04-16,1.65, 2.18, -17.67, 2.29, 2.00, 8.56, repro,
1998-04-17,3.99, 5.19, -16.94, 2.26, 1.96, 8.35, repro,
1998-04-18,2.46, 5.07, -15.68, 2.16, 1.85, 7.99, repro,
1998-04-19,1.30, 4.36, -19.96, 2.13, 1.84, 8.01, repro,
1998-04-20,1.12, 4.62, -14.04, 2.17, 1.90, 8.29, repro,
1998-04-21,2.77, 5.29, -13.92, 2.22, 1.88, 8.29, repro,
1998-04-22,2.20, 2.23, -15.31, 2.16, 1.86, 8.03, repro,
1998-04-23,1.41, 4.78, 3.34, 2.11, 1.82, 7.97, repro,
1998-04-24,3.21, 2.06, -8.61, 2.46, 2.21, 9.46, repro,
1998-04-25,2.34, 3.08, -1.84, 2.12, 1.82, 7.93, repro,
1998-04-26,1.38, 4.57, -11.34, 2.11, 1.83, 7.99, repro,
1998-04-27,1.88, 2.87, -13.13, 2.12, 1.80, 7.93, repro,
1998-04-28,2.46, 3.19, -15.52, 2.13, 1.84, 8.05, repro,
1998-04-29,2.43, 6.69, -3.91, 2.33, 1.95, 8.71, repro,
1998-04-30,1.94, 2.82, -6.52, 2.11, 1.86, 8.01, repro,
1998-05-01,2.72, 3.75, -26.04, 2.14, 1.87, 8.17, repro,
1998-05-02,1.53, 2.23, -6.01, 2.09, 1.80, 7.94, repro,
1998-05-03,1.53, 2.98, -3.32, 2.11, 1.80, 7.90, repro,
1998-05-04,1.17, 1.56, -11.29, 2.15, 1.86, 8.08, repro,
1998-05-05,2.94, 2.84, -5.08, 2.11, 1.82, 8.05, repro,
1998-05-06,3.82, 3.41, -2.82, 2.12, 1.86, 8.15, repro,
1998-05-07,2.53, 4.15, -6.02, 2.12, 1.85, 8.00, repro,
1998-05-08,2.25, 3.94, -3.69, 2.13, 1.82, 7.98, repro,
1998-05-09,2.78, 4.08, -17.15, 2.08, 1.80, 7.84, repro,
1998-05-10,1.34, 2.01, -8.15, 2.09, 1.80, 7.91, repro,
1998-05-11,0.34, 2.31, -5.24, 2.09, 1.81, 7.94, repro,
1998-05-12,1.98, 1.40, 2.04, 2.12, 1.81, 7.98, repro,
1998-05-13,1.22, 2.75, -1.63, 2.11, 1.81, 7.97, repro,
1998-05-14,1.56, 3.33, -8.17, 2.10, 1.80, 7.92, repro,
1998-05-15,2.33, 3.25, -9.03, 2.07, 1.79, 7.81, repro,
1998-05-16,2.59, 3.29, -8.05, 2.09, 1.80, 7.95, repro,
1998-05-17,2.20, 2.79, -6.37, 2.16, 1.91, 8.25, repro,
1998-05-18,1.32, 4.61, -8.90, 2.14, 1.90, 8.11, repro,
1998-05-19,1.92, 2.89, -5.71, 2.15, 1.90, 8.14, repro,
1998-05-20,0.98, 4.82, -6.82, 2.13, 1.84, 8.00, repro,
1998-05-21,2.18, 3.03, -11.04, 2.17, 1.90, 8.17, repro,
1998-05-22,0.84, 3.32, -11.13, 2.14, 1.89, 8.17, repro,
1998-05-23,1.23, 4.64, -8.41, 2.21, 1.94, 8.38, repro,
1998-05-24,1.83, 4.13, -3.62, 2.14, 1.88, 8.11, repro,
1998-05-25,1.26, 1.78, -8.95, 2.12, 1.89, 8.07, repro,
1998-05-26,0.14, 2.38, -11.93, 2.22, 1.98, 8.40, repro,
1998-05-27,0.89, 1.52, -4.14, 2.23, 1.91, 8.47, repro,
1998-05-28,1.34, 1.34, -12.42, 2.12, 1.91, 8.13, repro,
1998-05-29,1.45, 2.25, -14.40, 2.21, 1.99, 8.33, repro,
1998-05-30,1.29, 4.30, -5.86, 2.25, 2.02, 8.43, repro,
1998-05-31,2.65, 4.77, -5.40, 2.19, 1.91, 8.25, repro,
1998-06-01,1.29, 5.07, -2.19, 2.51, 2.20, 9.51, repro,
1998-06-02,0.39, 4.09, 0.90, 2.21, 1.96, 8.33, repro,
1998-06-03,0.18, 4.03, -0.51, 2.16, 1.91, 8.16, repro,
1998-06-04,1.79, 3.56, -3.83, 2.16, 1.90, 8.15, repro,
1998-06-05,1.95, 4.02, -4.41, 2.22, 2.01, 8.44, repro,
1998-06-06,2.00, 4.15, -6.94, 2.15, 1.90, 8.11, repro,
1998-06-07,2.07, 3.37, -11.34, 2.18, 1.95, 8.14, repro,
1998-06-08,0.56, 3.35, -2.02, 2.14, 1.90, 8.10, repro,
1998-06-09,1.16, 5.18, -1.29, 2.10, 1.83, 7.94, repro,
1998-06-10,2.49, 4.79, -0.13, 2.16, 1.86, 8.01, repro,
1998-06-11,1.73, 1.78, -14.21, 2.09, 1.81, 7.87, repro,
1998-06-12,0.85, 3.06, 0.09, 2.10, 1.83, 7.92, repro,
1998-06-13,1.95, 4.81, -3.63, 2.11, 1.81, 7.93, repro,
1998-06-14,2.54, 4.77, -3.81, 2.10, 1.82, 7.96, repro,
1998-06-15,4.07, 3.22, -3.60, 2.17, 1.90, 8.19, repro,
1998-06-16,0.58, 3.82, 1.90, 2.22, 1.93, 8.38, repro,
1998-06-17,2.14, 4.85, 0.84, 2.08, 1.80, 7.81, repro,
1998-06-18,1.50, 6.41, 2.52, 2.12, 1.85, 7.98, repro,
1998-06-19,-0.79, 6.36, -7.09, 2.11, 1.82, 7.98, repro,
1998-06-20,0.76, 5.89, -3.67, 2.10, 1.82, 7.92, repro,
1998-06-21,0.58, 5.62, -4.66, 2.11, 1.84, 7.99, repro,
1998-06-22,1.37, 5.41, -2.89, 2.16, 1.86, 8.24, repro,
1998-06-23,0.76, 4.33, -1.40, 2.17, 1.85, 8.26, repro,
1998-06-24,0.36, 5.73, 0.65, 2.17, 1.88, 8.23, repro,
1998-06-25,-0.63, 4.40, 11.68, 2.16, 1.86, 8.17, repro,
1998-06-26,1.35, 4.13, 2.60, 2.15, 1.89, 8.11, repro,
1998-06-27,1.66, 6.06, 4.54, 2.17, 1.96, 8.33, repro,
1998-06-28,1.14, 3.15, 2.11, 2.10, 1.83, 7.89, repro,
1998-06-29,0.35, 4.77, -1.71, 2.14, 1.88, 8.00, repro,
1998-06-30,0.73, 4.27, -3.30, 2.11, 1.83, 7.96, repro,
1998-07-01,1.31, 4.22, -3.79, 2.17, 1.86, 8.26, repro,
1998-07-02,1.37, 4.86, -9.88, 2.09, 1.82, 7.89, repro,
1998-07-03,0.96, 3.48, -1.94, 2.10, 1.82, 7.86, repro,
1998-07-04,0.72, 3.92, 2.49, 2.11, 1.82, 7.88, repro,
1998-07-05,0.76, 3.91, 0.33, 2.17, 1.85, 8.25, repro,
1998-07-06,0.59, 3.85, -0.24, 2.16, 1.85, 8.29, repro,
1998-07-07,0.38, 4.72, -5.25, 2.16, 1.84, 8.03, repro,
1998-07-08,1.04, 4.74, 0.74, 2.15, 1.86, 8.05, repro,
1998-07-09,0.61, 3.23, -1.91, 2.12, 1.85, 8.10, repro,
1998-07-10,1.14, 5.11, 4.21, 2.15, 1.90, 8.19, repro,
1998-07-11,0.62, 2.93, -3.57, 2.12, 1.82, 7.99, repro,
1998-07-12,1.15, 4.65, -11.71, 2.14, 1.84, 8.24, repro,
1998-07-13,1.09, 4.59, -2.96, 2.09, 1.82, 7.97, repro,
1998-07-14,1.78, 3.32, -0.97, 2.16, 1.84, 8.25, repro,
1998-07-15,0.46, 5.39, -1.63, 2.27, 1.91, 8.69, repro,
1998-07-16,0.96, 4.07, -0.40, 2.12, 1.84, 8.01, repro,
1998-07-17,-0.54, 5.54, 0.96, 2.11, 1.83, 7.97, repro,
1998-07-18,1.78, 3.45, 3.93, 2.18, 1.87, 8.33, repro,
1998-07-19,-0.01, 2.99, 2.24, 2.11, 1.83, 7.91, repro,
1998-07-20,0.59, 3.71, -2.20, 2.10, 1.82, 7.89, repro,
1998-07-21,0.29, 3.79, 0.81, 2.16, 1.86, 8.35, repro,
1998-07-22,0.29, 3.79, -6.45, 2.27, 1.87, 8.43, repro,
1998-07-23,1.27, 4.36, -4.72, 2.39, 1.96, 8.76, repro,
1998-07-24,1.41, 6.04, 2.91, 2.22, 1.86, 8.45, repro,
1998-07-25,0.60, 5.84, -10.47, 2.17, 1.89, 8.44, repro,
1998-07-26,1.31, 2.89, -4.46, 2.10, 1.82, 7.94, repro,
1998-07-27,1.60, 5.07, -11.39, 2.21, 1.92, 8.78, repro,
1998-07-28,1.08, 5.95, -1.55, 2.14, 1.87, 8.09, repro,
1998-07-29,1.15, 5.98, -2.00, 2.06, 1.79, 7.78, repro,
1998-07-30,0.38, 5.59, 5.16, 2.14, 1.85, 8.14, repro,
1998-07-31,1.04, 4.49, 0.33, 2.19, 1.91, 8.42, repro,
1998-08-01,2.55, 4.67, -6.14, 2.22, 1.97, 8.52, repro,
1998-08-02,1.39, 4.01, -5.63, 2.13, 1.82, 8.11, repro,
1998-08-03,1.87, 4.60, -1.02, 2.14, 1.85, 8.20, repro,
1998-08-04,0.57, 3.94, -3.69, 2.18, 1.97, 8.45, repro,
1998-08-05,1.37, 4.64, -1.13, 2.22, 2.01, 8.82, repro,
1998-08-06,1.21, 4.90, 3.22, 2.11, 1.84, 7.97, repro,
1998-08-07,1.48, 3.72, 0.93, 2.13, 1.82, 8.17, repro,
1998-08-08,0.80, 3.37, 5.17, 2.12, 1.82, 8.07, repro,
1998-08-09,1.14, 4.06, 2.24, 2.10, 1.83, 7.90, repro,
1998-08-10,3.27, 5.34, 4.27, 2.15, 1.85, 8.18, repro,
1998-08-11,1.46, 4.30, 4.66, 2.10, 1.84, 7.96, repro,
1998-08-12,3.38, 4.06, -1.91, 2.11, 1.84, 7.95, repro,
1998-08-13,3.87, 2.12, -11.01, 2.07, 1.79, 7.76, repro,
1998-08-14,3.96, 2.07, -1.97, 2.15, 1.85, 8.09, repro,
1998-08-15,3.21, 1.62, 5.09, 2.11, 1.83, 7.91, repro,
1998-08-16,4.00, 1.34, -6.40, 2.23, 1.93, 8.45, repro,
1998-08-17,6.77, 1.58, -7.34, 2.23, 1.85, 8.33, repro,
1998-08-18,6.04, 1.80, -6.47, 2.17, 1.84, 8.09, repro,
1998-08-19,5.05, 2.41, -1.13, 2.15, 1.84, 8.07, repro,
1998-08-20,5.68, 3.47, -9.46, 2.07, 1.84, 7.83, repro,
1998-08-21,3.80, 2.00, -5.61, 2.09, 1.82, 7.88, repro,
1998-08-22,4.92, 2.32, -8.17, 2.13, 1.90, 8.22, repro,
1998-08-23,3.95, 1.90, 7.13, 2.09, 1.81, 7.88, repro,
1998-08-24,4.63, 2.63, -0.03, 2.10, 1.84, 7.91, repro,
1998-08-25,5.09, 1.42, 0.37, 2.11, 1.82, 7.90, repro,
1998-08-26,-0.56, 5.86, -4.23, 2.12, 1.83, 7.87, repro,
1998-08-27,-1.06, 6.16, 3.42, 2.11, 1.83, 7.99, repro,
1998-08-28,-0.87, 5.07, -2.19, 2.10, 1.82, 7.94, repro,
1998-08-29,-1.10, 4.94, -9.02, 2.11, 1.83, 7.89, repro,
1998-08-30,-0.30, 5.52, -4.31, 2.19, 1.87, 8.11, repro,
1998-08-31,-1.61, 5.41, 1.55, 2.12, 1.84, 7.98, repro,
1998-09-01,-1.16, 5.62, 4.21, 2.19, 1.94, 8.47, repro,
1998-09-02,-1.62, 5.98, 4.52, 2.11, 1.86, 7.96, repro,
1998-09-03,-1.45, 5.57, 2.34, 2.09, 1.82, 7.93, repro,
1998-09-04,-0.73, 6.34, -0.71, 2.12, 1.88, 8.13, repro,
1998-09-05,-1.97, 4.26, -6.32, 2.06, 1.81, 7.86, repro,
1998-09-06,0.02, 5.36, -7.03, 2.12, 1.91, 8.14, repro,
1998-09-07,-1.12, 6.89, 9.17, 2.11, 1.88, 8.02, repro,
1998-09-08,-2.08, 4.82, 8.24, 2.21, 1.89, 8.28, repro,
1998-09-09,0.88, 3.88, -1.13, 2.13, 1.86, 8.12, repro,
1998-09-10,-0.88, 4.20, 3.46, 2.10, 1.83, 7.93, repro,
1998-09-11,-0.39, 4.81, -5.39, 2.16, 1.84, 8.12, repro,
1998-09-12,-1.77, 4.70, -4.86, 2.05, 1.80, 7.83, repro,
1998-09-13,-1.36, 5.02, -0.34, 2.09, 1.80, 7.84, repro,
1998-09-14,-1.35, 3.82, 6.42, 2.19, 1.89, 8.31, repro,
1998-09-15,-1.11, 2.97, 0.53, 2.08, 1.81, 7.83, repro,
1998-09-16,-0.26, 3.50, 10.54, 2.09, 1.85, 7.99, repro,
1998-09-17,-1.84, 3.49, 1.52, 2.16, 1.86, 8.15, repro,
1998-09-18,-1.26, 4.07, -1.56, 2.18, 1.86, 8.12, repro,
1998-09-19,-0.16, 4.53, -3.79, 2.08, 1.82, 7.83, repro,
1998-09-20,-0.79, 3.20, 11.86, 2.12, 1.84, 7.95, repro,
1998-09-21,-1.98, 4.51, -0.89, 2.10, 1.85, 8.00, repro,
1998-09-22,-2.31, 4.06, -4.26, 2.26, 1.96, 8.81, repro,
1998-09-23,-2.95, 3.85, 0.45, 2.32, 1.97, 8.86, repro,
1998-09-24,-2.07, 3.29, -3.03, 2.39, 2.04, 8.93, repro,
1998-09-25,-0.90, 2.54, -5.42, 2.39, 2.02, 8.79, repro,
1998-09-26,-2.03, 2.41, 3.51, 2.32, 1.99, 8.52, repro,
1998-09-27,-0.76, 4.25, -6.21, 2.27, 1.95, 8.55, repro,
1998-09-28,-1.32, 3.77, -1.37, 2.29, 1.93, 8.44, repro,
1998-09-29,-0.72, 3.80, -5.40, 2.18, 1.86, 8.03, repro,
1998-09-30,-1.43, 3.08, -4.37, 2.18, 1.89, 8.09, repro,
1998-10-01,-1.89, 2.09, -2.03, 2.26, 2.00, 8.41, repro,
1998-10-02,-1.48, 3.25, -6.03, 2.20, 1.96, 8.25, repro,
1998-10-03,-1.54, 3.35, -5.83, 2.61, 2.35, 9.70, repro,
1998-10-04,-0.40, 2.76, -6.82, 2.50, 2.07, 9.16, repro,
1998-10-05,-0.96, 1.79, -1.32, 2.22, 1.98, 8.37, repro,
1998-10-06,-1.87, 4.13, 0.95, 2.43, 2.10, 8.90, repro,
1998-10-07,-0.71, 2.73, 7.86, 2.36, 2.07, 8.65, repro,
1998-10-08,-0.25, 2.20, 2.64, 2.52, 2.21, 9.54, repro,
1998-10-09,-1.20, 2.78, -11.01, 2.52, 2.24, 9.23, repro,
1998-10-10,1.16, 3.23, -3.68, 2.35, 2.12, 9.06, repro,
1998-10-11,-0.64, 3.12, -1.65, 2.32, 1.99, 8.70, repro,
1998-10-12,-1.51, 4.46, 0.56, 2.42, 2.12, 8.99, repro,
1998-10-13,-1.63, 4.82, 4.47, 2.42, 2.16, 8.84, repro,
1998-10-14,-0.47, 4.25, -1.30, 2.38, 2.10, 8.98, repro,
1998-10-15,0.62, 2.89, -3.16, 2.57, 2.24, 9.84, repro,
1998-10-16,0.02, 2.94, -10.47, 2.43, 2.11, 8.83, repro,
1998-10-17,-1.29, 4.91, -8.21, 2.51, 2.19, 9.41, repro,
1998-10-18,-1.11, 4.08, -8.79, 2.50, 2.33, 9.24, repro,
1998-10-19,-1.14, 5.99, -11.15, 2.57, 2.34, 9.50, repro,
1998-10-20,-2.06, 4.32, -5.66, 2.43, 2.08, 9.10, repro,
1998-10-21,-0.35, 3.75, -2.35, 2.29, 1.99, 8.29, repro,
1998-10-22,-0.57, 3.57, -5.28, 2.32, 2.08, 8.46, repro,
1998-10-23,-2.28, 5.17, -9.38, 2.36, 2.05, 8.71, repro,
1998-10-24,-0.34, 5.45, -9.77, 2.42, 2.12, 8.99, repro,
1998-10-25,-0.66, 2.32, -5.02, 2.17, 1.90, 8.14, repro,
1998-10-26,-1.65, 3.62, -2.26, 2.30, 2.04, 8.47, repro,
1998-10-27,-1.73, 4.47, -5.99, 2.36, 2.08, 8.70, repro,
1998-10-28,1.18, 4.36, -10.05, 2.37, 2.14, 8.94, repro,
1998-10-30,0.41, 3.81, -4.33, 2.22, 2.00, 8.45, repro,
1998-10-31,-1.58, 4.13, -2.81, 2.25, 1.94, 8.36, repro,
1998-11-01,0.36, 4.18, -12.71, 2.27, 1.94, 8.38, repro,
1998-11-02,1.24, 5.40, -6.10, 2.33, 1.99, 8.91, repro,
1998-11-03,1.35, 2.70, -13.52, 2.43, 2.11, 9.16, repro,
1998-11-04,0.69, 3.81, -2.28, 2.64, 2.32, 9.79, repro,
1998-11-05,3.39, 3.53, 4.29, 2.40, 2.13, 8.91, repro,
1998-11-06,1.17, 1.86, -3.37, 2.27, 1.99, 8.43, repro,
1998-11-07,-0.69, 1.63, -13.15, 2.17, 1.89, 8.36, repro,
1998-11-08,-0.53, 2.61, -9.12, 2.24, 1.99, 8.31, repro,
1998-11-09,0.64, 2.86, -5.17, 2.12, 1.86, 8.00, repro,
1998-11-10,-1.52, 5.01, -4.00, 2.19, 1.91, 8.33, repro,